﻿dateheure;10chata;tchata;hychata
2024-04-28T22:00:00+00:00;49;19,3;45,1
2024-04-28T21:00:00+00:00;56;19,7;42,4
2024-04-28T20:00:00+00:00;57;19,9;42,8
2024-04-28T19:00:00+00:00;74;20,1;42,8
2024-04-28T18:00:00+00:00;55;20,7;37,7
2024-04-28T17:00:00+00:00;45;20,6;37,1
2024-04-28T16:00:00+00:00;41;20,4;38,1
2024-04-28T15:00:00+00:00;57;19,9;39,8
2024-04-28T14:00:00+00:00;38;19,8;39,9
2024-04-28T13:00:00+00:00;43;19,6;41
2024-04-28T12:00:00+00:00;35;19,3;44,4
2024-04-28T11:00:00+00:00;32;18,8;46,9
2024-04-28T10:00:00+00:00;46;18,5;49,2
2024-04-28T09:00:00+00:00;49;18,4;50,7
2024-04-28T08:00:00+00:00;61;18,4;53,1
2024-04-28T07:00:00+00:00;42;18,3;54,5
2024-04-28T06:00:00+00:00;41;18,3;53,3
2024-04-28T05:00:00+00:00;29;18,2;54,1
2024-04-28T04:00:00+00:00;18;18,3;55,1
2024-04-28T03:00:00+00:00;6;18,3;55,9
2024-04-28T02:00:00+00:00;ND;18,4;56,2
2024-04-28T01:00:00+00:00;16;18,5;57,6
2024-04-28T00:00:00+00:00;35;18,9;58,2
2024-04-27T23:00:00+00:00;36;19,2;58,7
2024-04-27T22:00:00+00:00;41;19,6;60
2024-04-27T21:00:00+00:00;74;19,9;58,4
2024-04-27T20:00:00+00:00;55;20,3;54,6
2024-04-27T19:00:00+00:00;48;20,4;56
2024-04-27T18:00:00+00:00;55;20,5;57,3
2024-04-27T17:00:00+00:00;63;20,6;58,4
2024-04-27T16:00:00+00:00;93;20,4;60,4
2024-04-27T15:00:00+00:00;103;20;61,8
2024-04-27T14:00:00+00:00;73;19,8;59,6
2024-04-27T13:00:00+00:00;68;19,8;55,1
2024-04-27T12:00:00+00:00;55;19,8;50,3
2024-04-27T11:00:00+00:00;35;19,6;51,4
2024-04-27T10:00:00+00:00;41;19;53,1
2024-04-27T09:00:00+00:00;34;18,6;54,2
2024-04-27T08:00:00+00:00;40;18,4;54,9
2024-04-27T07:00:00+00:00;39;18,1;55,4
2024-04-27T06:00:00+00:00;22;18;55,8
2024-04-27T05:00:00+00:00;21;17,8;56,1
2024-04-27T04:00:00+00:00;ND;17,9;55,7
2024-04-27T03:00:00+00:00;7;17,9;55,5
2024-04-27T02:00:00+00:00;ND;18;54,9
2024-04-27T01:00:00+00:00;18;18,2;53,7
2024-04-27T00:00:00+00:00;37;18,4;52,1
2024-04-26T23:00:00+00:00;41;18,8;51,2
2024-04-26T22:00:00+00:00;49;19,1;48,4
2024-04-26T21:00:00+00:00;70;19,6;44,4
2024-04-26T20:00:00+00:00;75;20,1;39,7
2024-04-26T19:00:00+00:00;84;20;39,8
2024-04-26T18:00:00+00:00;93;20,4;39,3
2024-04-26T17:00:00+00:00;102;20,6;38,7
2024-04-26T16:00:00+00:00;106;20,2;38
2024-04-26T15:00:00+00:00;91;20,1;36,5
2024-04-26T14:00:00+00:00;67;19,7;35,9
2024-04-26T13:00:00+00:00;64;19,1;36,6
2024-04-26T12:00:00+00:00;62;18,9;37,6
2024-04-26T11:00:00+00:00;69;18,4;38,9
2024-04-26T10:00:00+00:00;70;18,2;41,1
2024-04-26T09:00:00+00:00;96;17,6;43,1
2024-04-26T08:00:00+00:00;109;17,7;44,3
2024-04-26T07:00:00+00:00;103;17,4;44,5
2024-04-26T06:00:00+00:00;73;17,3;43,8
2024-04-26T05:00:00+00:00;53;16,9;43,2
2024-04-26T04:00:00+00:00;17;16,9;41,4
2024-04-26T03:00:00+00:00;17;17,1;39,8
2024-04-26T02:00:00+00:00;25;17,2;39,3
2024-04-26T01:00:00+00:00;35;17,4;38,1
2024-04-26T00:00:00+00:00;25;17,5;36,7
2024-04-25T23:00:00+00:00;46;17,8;36,4
2024-04-25T22:00:00+00:00;81;18;35,3
2024-04-25T21:00:00+00:00;74;18,3;33,6
2024-04-25T20:00:00+00:00;72;18,6;31,3
2024-04-25T19:00:00+00:00;87;18,8;30,8
2024-04-25T18:00:00+00:00;95;19,2;29,9
2024-04-25T17:00:00+00:00;106;19,3;30,1
2024-04-25T16:00:00+00:00;102;19;30
2024-04-25T15:00:00+00:00;67;18,4;29,6
2024-04-25T14:00:00+00:00;60;18;29,7
2024-04-25T13:00:00+00:00;61;17,8;29,2
2024-04-25T12:00:00+00:00;67;17,5;30
2024-04-25T11:00:00+00:00;56;17,2;30,7
2024-04-25T10:00:00+00:00;57;16,8;31,9
2024-04-25T09:00:00+00:00;81;16,9;34,4
2024-04-25T08:00:00+00:00;102;16,5;38,1
2024-04-25T07:00:00+00:00;87;16,4;39,3
2024-04-25T06:00:00+00:00;70;16,4;38,5
2024-04-25T05:00:00+00:00;38;16;38,2
2024-04-25T04:00:00+00:00;ND;16;37,7
2024-04-25T03:00:00+00:00;ND;15,8;37,5
2024-04-25T02:00:00+00:00;10;15,8;36,9
2024-04-25T01:00:00+00:00;25;16,1;35,6
2024-04-25T00:00:00+00:00;21;16,3;34,8
2024-04-24T23:00:00+00:00;43;16,4;35,3
2024-04-24T22:00:00+00:00;46;16,7;34,8
2024-04-24T21:00:00+00:00;50;17,1;33,5
2024-04-24T20:00:00+00:00;70;17,5;32,1
2024-04-24T19:00:00+00:00;119;17,6;32,2
2024-04-24T18:00:00+00:00;106;18,1;30,6
2024-04-24T17:00:00+00:00;89;18,5;32
2024-04-24T16:00:00+00:00;89;18,2;32,7
2024-04-24T15:00:00+00:00;80;17,8;33,9
2024-04-24T14:00:00+00:00;57;17,5;34,1
2024-04-24T13:00:00+00:00;79;17,3;35,1
2024-04-24T12:00:00+00:00;55;17,2;35,6
2024-04-24T11:00:00+00:00;56;17;36
2024-04-24T10:00:00+00:00;61;16,8;39,7
2024-04-24T09:00:00+00:00;86;16,5;42,9
2024-04-24T08:00:00+00:00;94;16,5;45,2
2024-04-24T07:00:00+00:00;80;16,7;45,9
2024-04-24T06:00:00+00:00;58;16,4;45,8
2024-04-24T05:00:00+00:00;40;16,2;46,6
2024-04-24T04:00:00+00:00;ND;16,2;47,8
2024-04-24T03:00:00+00:00;9;16,2;47,1
2024-04-24T02:00:00+00:00;24;16,3;44,1
2024-04-24T01:00:00+00:00;53;16,4;42,1
2024-04-24T00:00:00+00:00;49;16,6;39,4
2024-04-23T23:00:00+00:00;39;16,7;37,9
2024-04-23T22:00:00+00:00;61;17,1;35,1
2024-04-23T21:00:00+00:00;52;17,7;31,1
2024-04-23T20:00:00+00:00;72;18;28,9
2024-04-23T19:00:00+00:00;120;18,1;29,1
2024-04-23T18:00:00+00:00;123;18,8;28,8
2024-04-23T17:00:00+00:00;92;19,4;28,5
2024-04-23T16:00:00+00:00;73;19,1;27,6
2024-04-23T15:00:00+00:00;82;18,2;26,3
2024-04-23T14:00:00+00:00;96;17,6;25,8
2024-04-23T13:00:00+00:00;30;17,6;24,6
2024-04-23T12:00:00+00:00;29;17,4;25,1
2024-04-23T11:00:00+00:00;45;16,9;26,2
2024-04-23T10:00:00+00:00;47;16,6;30,1
2024-04-23T09:00:00+00:00;61;16,6;36,5
2024-04-23T08:00:00+00:00;ND;16,1;41,6
2024-04-23T07:00:00+00:00;ND;16,2;39,7
2024-04-23T06:00:00+00:00;ND;ND;ND
2024-04-23T05:00:00+00:00;ND;ND;ND
2024-04-23T04:00:00+00:00;ND;ND;ND
2024-04-23T03:00:00+00:00;ND;ND;ND
2024-04-23T02:00:00+00:00;ND;ND;ND
2024-04-23T01:00:00+00:00;ND;ND;ND
2024-04-23T00:00:00+00:00;19;16,1;36,6
2024-04-22T23:00:00+00:00;28;16,2;36
2024-04-22T22:00:00+00:00;38;16,6;38,4
2024-04-22T21:00:00+00:00;55;17,1;37,8
2024-04-22T20:00:00+00:00;92;17,6;35,6
2024-04-22T19:00:00+00:00;100;18,3;34,5
2024-04-22T18:00:00+00:00;105;18,3;34
2024-04-22T17:00:00+00:00;100;18,5;32,1
2024-04-22T16:00:00+00:00;93;18,4;30,1
2024-04-22T15:00:00+00:00;55;18;28,9
2024-04-22T14:00:00+00:00;52;17,6;31,4
2024-04-22T13:00:00+00:00;51;17,3;32,5
2024-04-22T12:00:00+00:00;56;17;33,7
2024-04-22T11:00:00+00:00;48;16,6;37,2
2024-04-22T10:00:00+00:00;60;16,4;39,8
2024-04-22T09:00:00+00:00;84;16,2;41
2024-04-22T08:00:00+00:00;101;16,1;43,1
2024-04-22T07:00:00+00:00;93;15,9;44,1
2024-04-22T06:00:00+00:00;85;15,8;43,5
2024-04-22T05:00:00+00:00;49;15,6;43
2024-04-22T04:00:00+00:00;19;15,5;42,4
2024-04-22T03:00:00+00:00;6;15,6;41,6
2024-04-22T02:00:00+00:00;9;15,8;41
2024-04-22T01:00:00+00:00;18;16;40,2
2024-04-22T00:00:00+00:00;18;16,3;38,2
2024-04-21T23:00:00+00:00;37;16,6;36,6
2024-04-21T22:00:00+00:00;44;17,1;35,8
2024-04-21T21:00:00+00:00;40;17,5;33,9
2024-04-21T20:00:00+00:00;59;17,7;33
2024-04-21T19:00:00+00:00;70;17,9;32,1
2024-04-21T18:00:00+00:00;60;18,2;31,7
2024-04-21T17:00:00+00:00;86;18,2;32,3
2024-04-21T16:00:00+00:00;60;18,1;32,3
2024-04-21T15:00:00+00:00;54;18;32,9
2024-04-21T14:00:00+00:00;46;17,8;35
2024-04-21T13:00:00+00:00;46;17,3;39,5
2024-04-21T12:00:00+00:00;46;17,1;38,2
2024-04-21T11:00:00+00:00;26;17;34,6
2024-04-21T10:00:00+00:00;22;16,6;36,3
2024-04-21T09:00:00+00:00;29;16,2;38,8
2024-04-21T08:00:00+00:00;30;16;39,2
2024-04-21T07:00:00+00:00;29;15,9;38,9
2024-04-21T06:00:00+00:00;27;15,9;38,7
2024-04-21T05:00:00+00:00;29;15,9;38,5
2024-04-21T04:00:00+00:00;28;15,8;38,7
2024-04-21T03:00:00+00:00;10;16;38,4
2024-04-21T02:00:00+00:00;14;16,2;38,5
2024-04-21T01:00:00+00:00;15;16,4;38,3
2024-04-21T00:00:00+00:00;26;16,7;37,4
2024-04-20T23:00:00+00:00;40;17,5;36,7
2024-04-20T22:00:00+00:00;53;17,8;36
2024-04-20T21:00:00+00:00;50;18;34,9
2024-04-20T20:00:00+00:00;78;18,4;34,4
2024-04-20T19:00:00+00:00;62;18,6;35,3
2024-04-20T18:00:00+00:00;60;18,8;35,9
2024-04-20T17:00:00+00:00;84;18,8;36,4
2024-04-20T16:00:00+00:00;77;18,7;36,9
2024-04-20T15:00:00+00:00;87;18,5;38,1
2024-04-20T14:00:00+00:00;48;18,2;37,5
2024-04-20T13:00:00+00:00;60;18;39,2
2024-04-20T12:00:00+00:00;49;17,8;37,3
2024-04-20T11:00:00+00:00;43;17,6;36,4
2024-04-20T10:00:00+00:00;36;17,3;37,4
2024-04-20T09:00:00+00:00;49;16,9;38,5
2024-04-20T08:00:00+00:00;44;16,6;38,6
2024-04-20T07:00:00+00:00;44;16,3;39,1
2024-04-20T06:00:00+00:00;35;16,6;39,4
2024-04-20T05:00:00+00:00;41;16,6;39,9
2024-04-20T04:00:00+00:00;29;16,5;41
2024-04-20T03:00:00+00:00;15;16,4;42,8
2024-04-20T02:00:00+00:00;18;16,7;42,9
2024-04-20T01:00:00+00:00;20;16,9;43
2024-04-20T00:00:00+00:00;40;17,2;43,6
2024-04-19T23:00:00+00:00;45;17,6;45,4
2024-04-19T22:00:00+00:00;40;17,9;48,6
2024-04-19T21:00:00+00:00;59;18,2;50,2
2024-04-19T20:00:00+00:00;70;18,7;51,7
2024-04-19T19:00:00+00:00;85;18,7;55,6
2024-04-19T18:00:00+00:00;111;19;55,7
2024-04-19T17:00:00+00:00;110;19,3;52,3
2024-04-19T16:00:00+00:00;102;19,2;53,7
2024-04-19T15:00:00+00:00;73;19;54,7
2024-04-19T14:00:00+00:00;68;18,7;51,7
2024-04-19T13:00:00+00:00;76;18,6;49,8
2024-04-19T12:00:00+00:00;65;18,4;48,8
2024-04-19T11:00:00+00:00;49;18,2;48
2024-04-19T10:00:00+00:00;58;18;47,2
2024-04-19T09:00:00+00:00;64;17,6;46,6
2024-04-19T08:00:00+00:00;58;17,9;44,7
2024-04-19T07:00:00+00:00;57;18,1;42,7
2024-04-19T06:00:00+00:00;137;17,9;42,8
2024-04-19T05:00:00+00:00;88;17,5;42,2
2024-04-19T04:00:00+00:00;21;17,8;41,4
2024-04-19T03:00:00+00:00;12;17,7;40
2024-04-19T02:00:00+00:00;ND;17,7;39,1
2024-04-19T01:00:00+00:00;30;17,8;38,4
2024-04-19T00:00:00+00:00;24;17,9;35,8
2024-04-18T23:00:00+00:00;33;18,2;33,3
2024-04-18T22:00:00+00:00;46;18,5;32,4
2024-04-18T21:00:00+00:00;69;18,9;31,7
2024-04-18T20:00:00+00:00;59;19,4;30,6
2024-04-18T19:00:00+00:00;84;19,5;30,6
2024-04-18T18:00:00+00:00;84;19,8;30,8
2024-04-18T17:00:00+00:00;72;20,1;31,7
2024-04-18T16:00:00+00:00;79;19,6;32,6
2024-04-18T15:00:00+00:00;50;19,2;33,3
2024-04-18T14:00:00+00:00;84;18,6;34,6
2024-04-18T13:00:00+00:00;57;18,2;35,4
2024-04-18T12:00:00+00:00;48;18;36,2
2024-04-18T11:00:00+00:00;60;17,5;39,2
2024-04-18T10:00:00+00:00;56;17,4;40,4
2024-04-18T09:00:00+00:00;81;17,1;41,7
2024-04-18T08:00:00+00:00;122;16,9;44,2
2024-04-18T07:00:00+00:00;102;16,7;44,9
2024-04-18T06:00:00+00:00;62;16,8;43,8
2024-04-18T05:00:00+00:00;57;16,3;44
2024-04-18T04:00:00+00:00;22;16,5;43
2024-04-18T03:00:00+00:00;8;16,4;42
2024-04-18T02:00:00+00:00;16;16,7;40,9
2024-04-18T01:00:00+00:00;26;17,2;38,2
2024-04-18T00:00:00+00:00;24;17,5;37,4
2024-04-17T23:00:00+00:00;55;17,9;37,2
2024-04-17T22:00:00+00:00;28;18,4;37,4
2024-04-17T21:00:00+00:00;46;18,6;35,7
2024-04-17T20:00:00+00:00;60;18,7;34,7
2024-04-17T19:00:00+00:00;107;19;35,4
2024-04-17T18:00:00+00:00;96;19,5;35,6
2024-04-17T17:00:00+00:00;102;19,6;38,9
2024-04-17T16:00:00+00:00;86;19,1;40,5
2024-04-17T15:00:00+00:00;70;18,8;42
2024-04-17T14:00:00+00:00;64;18,8;41,8
2024-04-17T13:00:00+00:00;60;18,8;34,6
2024-04-17T12:00:00+00:00;66;18,7;33,8
2024-04-17T11:00:00+00:00;48;18,7;33,1
2024-04-17T10:00:00+00:00;63;18,2;36,3
2024-04-17T09:00:00+00:00;60;18;39
2024-04-17T08:00:00+00:00;93;18;41,8
2024-04-17T07:00:00+00:00;96;17,8;44,6
2024-04-17T06:00:00+00:00;70;17,7;44,6
2024-04-17T05:00:00+00:00;57;17,4;43,9
2024-04-17T04:00:00+00:00;21;17,6;43
2024-04-17T03:00:00+00:00;13;17,7;42,8
2024-04-17T02:00:00+00:00;8;18;42,7
2024-04-17T01:00:00+00:00;16;18;42,5
2024-04-17T00:00:00+00:00;24;18,2;41,9
2024-04-16T23:00:00+00:00;26;18,3;40,6
2024-04-16T22:00:00+00:00;38;18,7;39,3
2024-04-16T21:00:00+00:00;55;19,1;38,3
2024-04-16T20:00:00+00:00;82;19,5;37,1
2024-04-16T19:00:00+00:00;131;19,8;38,7
2024-04-16T18:00:00+00:00;101;20,3;40,8
2024-04-16T17:00:00+00:00;110;20,5;41,9
2024-04-16T16:00:00+00:00;92;20,6;41,1
2024-04-16T15:00:00+00:00;61;20;41,7
2024-04-16T14:00:00+00:00;58;19,4;45,3
2024-04-16T13:00:00+00:00;65;18,9;47,5
2024-04-16T12:00:00+00:00;60;18,9;47,7
2024-04-16T11:00:00+00:00;49;18,9;46,6
2024-04-16T10:00:00+00:00;60;18,6;48,3
2024-04-16T09:00:00+00:00;106;18,5;46,6
2024-04-16T08:00:00+00:00;124;18,7;44,5
2024-04-16T07:00:00+00:00;103;18,6;43,7
2024-04-16T06:00:00+00:00;82;18,5;43,3
2024-04-16T05:00:00+00:00;76;18,5;40,4
2024-04-16T04:00:00+00:00;38;18,5;39
2024-04-16T03:00:00+00:00;14;18,3;38,8
2024-04-16T02:00:00+00:00;7;18,5;38,6
2024-04-16T01:00:00+00:00;20;18,7;38,5
2024-04-16T00:00:00+00:00;22;19;37,6
2024-04-15T23:00:00+00:00;35;19;37,8
2024-04-15T22:00:00+00:00;42;19,4;36,4
2024-04-15T21:00:00+00:00;61;19,6;36,2
2024-04-15T20:00:00+00:00;75;20,2;36
2024-04-15T19:00:00+00:00;103;20,5;36,2
2024-04-15T18:00:00+00:00;112;20,8;38,1
2024-04-15T17:00:00+00:00;103;21;43,1
2024-04-15T16:00:00+00:00;121;20,8;46,6
2024-04-15T15:00:00+00:00;77;21,2;43,9
2024-04-15T14:00:00+00:00;65;21,2;41
2024-04-15T13:00:00+00:00;69;21,1;38,6
2024-04-15T12:00:00+00:00;57;21;36,7
2024-04-15T11:00:00+00:00;43;20,8;36,6
2024-04-15T10:00:00+00:00;55;20,3;37,5
2024-04-15T09:00:00+00:00;66;20,2;38,1
2024-04-15T08:00:00+00:00;86;20,1;41,9
2024-04-15T07:00:00+00:00;101;19,9;43,6
2024-04-15T06:00:00+00:00;78;20,2;42,2
2024-04-15T05:00:00+00:00;63;20,1;42,1
2024-04-15T04:00:00+00:00;17;20,3;40,6
2024-04-15T03:00:00+00:00;7;20,3;38,8
2024-04-15T02:00:00+00:00;ND;20,7;38
2024-04-15T01:00:00+00:00;10;21;39,3
2024-04-15T00:00:00+00:00;38;21,3;39,4
2024-04-14T23:00:00+00:00;34;21,4;42,6
2024-04-14T22:00:00+00:00;41;22;44,2
2024-04-14T21:00:00+00:00;57;22,3;42,9
2024-04-14T20:00:00+00:00;64;22,7;43,3
2024-04-14T19:00:00+00:00;72;23;43
2024-04-14T18:00:00+00:00;63;23,2;44,7
2024-04-14T17:00:00+00:00;57;23,5;44,7
2024-04-14T16:00:00+00:00;54;23,3;44
2024-04-14T15:00:00+00:00;47;23,1;44,1
2024-04-14T14:00:00+00:00;48;22,8;44,7
2024-04-14T13:00:00+00:00;44;22,5;44,5
2024-04-14T12:00:00+00:00;32;22,1;45,2
2024-04-14T11:00:00+00:00;32;21,6;47,5
2024-04-14T10:00:00+00:00;32;21,2;49,3
2024-04-14T09:00:00+00:00;37;21;49,9
2024-04-14T08:00:00+00:00;29;21;49,3
2024-04-14T07:00:00+00:00;34;21,1;47,8
2024-04-14T06:00:00+00:00;35;21,2;45,2
2024-04-14T05:00:00+00:00;33;21,5;43,1
2024-04-14T04:00:00+00:00;15;21,7;41,1
2024-04-14T03:00:00+00:00;13;22;38,8
2024-04-14T02:00:00+00:00;14;22,4;40,2
2024-04-14T01:00:00+00:00;20;22,6;42,9
2024-04-14T00:00:00+00:00;43;23,1;49,4
2024-04-13T23:00:00+00:00;45;23,9;51,1
2024-04-13T22:00:00+00:00;53;24,3;51,3
2024-04-13T21:00:00+00:00;51;24,5;51,1
2024-04-13T20:00:00+00:00;69;24,8;49,6
2024-04-13T19:00:00+00:00;94;25;47,6
2024-04-13T18:00:00+00:00;104;25,1;45
2024-04-13T17:00:00+00:00;91;25,2;44,8
2024-04-13T16:00:00+00:00;88;24,9;45,7
2024-04-13T15:00:00+00:00;98;24,8;46,3
2024-04-13T14:00:00+00:00;79;24,4;47,6
2024-04-13T13:00:00+00:00;69;24;49,3
2024-04-13T12:00:00+00:00;68;23,5;51,4
2024-04-13T11:00:00+00:00;59;23,1;52,4
2024-04-13T10:00:00+00:00;55;22,5;53,9
2024-04-13T09:00:00+00:00;54;21,9;54,6
2024-04-13T08:00:00+00:00;45;21,5;55,1
2024-04-13T07:00:00+00:00;51;21,2;55,5
2024-04-13T06:00:00+00:00;41;21,3;55,4
2024-04-13T05:00:00+00:00;27;21,3;55,4
2024-04-13T04:00:00+00:00;10;21,3;55,2
2024-04-13T03:00:00+00:00;36;21,5;54,5
2024-04-13T02:00:00+00:00;19;21,6;54
2024-04-13T01:00:00+00:00;42;21,8;54,2
2024-04-13T00:00:00+00:00;44;22,3;53,1
2024-04-12T23:00:00+00:00;67;22,7;52,2
2024-04-12T22:00:00+00:00;87;23,3;50,9
2024-04-12T21:00:00+00:00;75;23,4;49,5
2024-04-12T20:00:00+00:00;89;23,8;48,6
2024-04-12T19:00:00+00:00;99;23,9;48,8
2024-04-12T18:00:00+00:00;110;24,1;48,3
2024-04-12T17:00:00+00:00;103;24,3;48,4
2024-04-12T16:00:00+00:00;103;24;48,6
2024-04-12T15:00:00+00:00;86;23,4;49,1
2024-04-12T14:00:00+00:00;80;23,1;49,6
2024-04-12T13:00:00+00:00;73;22,5;50,3
2024-04-12T12:00:00+00:00;75;22,1;51,4
2024-04-12T11:00:00+00:00;73;21,7;54,6
2024-04-12T10:00:00+00:00;81;21,2;57
2024-04-12T09:00:00+00:00;97;20,8;57,7
2024-04-12T08:00:00+00:00;110;20,5;58,3
2024-04-12T07:00:00+00:00;114;20,2;58,9
2024-04-12T06:00:00+00:00;111;20;59,4
2024-04-12T05:00:00+00:00;93;20;59,8
2024-04-12T04:00:00+00:00;88;19,9;60,4
2024-04-12T03:00:00+00:00;100;20,1;59,6
2024-04-12T02:00:00+00:00;161;20,2;60
2024-04-12T01:00:00+00:00;<5;20,4;59,5
2024-04-12T00:00:00+00:00;ND;20,6;58,8
2024-04-11T23:00:00+00:00;41;21;58,4
2024-04-11T22:00:00+00:00;73;21,4;57,5
2024-04-11T21:00:00+00:00;82;21,7;56,7
2024-04-11T20:00:00+00:00;68;22;55,1
2024-04-11T19:00:00+00:00;98;22,2;54,3
2024-04-11T18:00:00+00:00;92;22,6;53,6
2024-04-11T17:00:00+00:00;111;22,6;54
2024-04-11T16:00:00+00:00;87;22,1;54,5
2024-04-11T15:00:00+00:00;85;21,6;54,5
2024-04-11T14:00:00+00:00;65;21,3;54,3
2024-04-11T13:00:00+00:00;61;21;53,4
2024-04-11T12:00:00+00:00;66;20,7;53,3
2024-04-11T11:00:00+00:00;81;20,4;53,4
2024-04-11T10:00:00+00:00;76;20,1;53,1
2024-04-11T09:00:00+00:00;71;19,9;52,5
2024-04-11T08:00:00+00:00;111;19,7;53,4
2024-04-11T07:00:00+00:00;98;19,6;53,3
2024-04-11T06:00:00+00:00;86;19,5;51,6
2024-04-11T05:00:00+00:00;69;19,3;50,4
2024-04-11T04:00:00+00:00;ND;19,2;48,2
2024-04-11T03:00:00+00:00;16;19,2;44,7
2024-04-11T02:00:00+00:00;15;19,3;42,9
2024-04-11T01:00:00+00:00;20;19,4;42,1
2024-04-11T00:00:00+00:00;43;19,7;40,5
2024-04-10T23:00:00+00:00;71;19,9;39,7
2024-04-10T22:00:00+00:00;104;20,3;39
2024-04-10T21:00:00+00:00;67;20,5;37,9
2024-04-10T20:00:00+00:00;59;20,8;36,2
2024-04-10T19:00:00+00:00;108;20,9;35,1
2024-04-10T18:00:00+00:00;98;21,3;34,3
2024-04-10T17:00:00+00:00;117;21,5;34,8
2024-04-10T16:00:00+00:00;98;21,1;34,3
2024-04-10T15:00:00+00:00;74;20,6;34
2024-04-10T14:00:00+00:00;73;20,3;33,3
2024-04-10T13:00:00+00:00;70;19,7;33,3
2024-04-10T12:00:00+00:00;57;19,3;35,3
2024-04-10T11:00:00+00:00;64;18,9;38,5
2024-04-10T10:00:00+00:00;96;18,6;41,9
2024-04-10T09:00:00+00:00;62;18,2;45,5
2024-04-10T08:00:00+00:00;109;18;46,4
2024-04-10T07:00:00+00:00;85;17,9;46
2024-04-10T06:00:00+00:00;69;17,8;45,2
2024-04-10T05:00:00+00:00;89;17,6;45
2024-04-10T04:00:00+00:00;ND;17,8;43,1
2024-04-10T03:00:00+00:00;21;17,8;42,2
2024-04-10T02:00:00+00:00;20;18;41,2
2024-04-10T01:00:00+00:00;27;18,2;40,1
2024-04-10T00:00:00+00:00;37;18,1;40
2024-04-09T23:00:00+00:00;53;18,6;39
2024-04-09T22:00:00+00:00;59;18,9;39,1
2024-04-09T21:00:00+00:00;52;19,3;38,6
2024-04-09T20:00:00+00:00;85;19,7;38,8
2024-04-09T19:00:00+00:00;95;20;39,5
2024-04-09T18:00:00+00:00;88;20,5;40,9
2024-04-09T17:00:00+00:00;119;20,8;41,8
2024-04-09T16:00:00+00:00;94;20,7;39,8
2024-04-09T15:00:00+00:00;87;20,3;42,3
2024-04-09T14:00:00+00:00;80;20,4;40
2024-04-09T13:00:00+00:00;83;20,4;37,4
2024-04-09T12:00:00+00:00;64;20,2;38,5
2024-04-09T11:00:00+00:00;65;20,1;36,6
2024-04-09T10:00:00+00:00;75;19,9;36,8
2024-04-09T09:00:00+00:00;88;19,9;37,3
2024-04-09T08:00:00+00:00;121;20,1;38,7
2024-04-09T07:00:00+00:00;95;19,7;41,1
2024-04-09T06:00:00+00:00;75;19,9;40,7
2024-04-09T05:00:00+00:00;46;19,8;40,2
2024-04-09T04:00:00+00:00;32;20,1;39,7
2024-04-09T03:00:00+00:00;6;20,2;40,7
2024-04-09T02:00:00+00:00;44;20,4;44,9
2024-04-09T01:00:00+00:00;25;20,9;43,6
2024-04-09T00:00:00+00:00;61;21,2;47,2
2024-04-08T23:00:00+00:00;43;21,6;45,2
2024-04-08T22:00:00+00:00;25;22,1;47,4
2024-04-08T21:00:00+00:00;42;22,4;50,1
2024-04-08T20:00:00+00:00;70;23;49,7
2024-04-08T19:00:00+00:00;90;23,5;49,1
2024-04-08T18:00:00+00:00;116;24;49,2
2024-04-08T17:00:00+00:00;110;24,3;49,3
2024-04-08T16:00:00+00:00;113;23,9;51,9
2024-04-08T15:00:00+00:00;99;23;53
2024-04-08T14:00:00+00:00;85;22,5;53,1
2024-04-08T13:00:00+00:00;69;21,9;54,3
2024-04-08T12:00:00+00:00;51;21,3;55,7
2024-04-08T11:00:00+00:00;65;20,7;56,9
2024-04-08T10:00:00+00:00;74;20,4;57,1
2024-04-08T09:00:00+00:00;67;20,4;55,8
2024-04-08T08:00:00+00:00;98;20,5;57,2
2024-04-08T07:00:00+00:00;105;20,2;59,2
2024-04-08T06:00:00+00:00;71;20,1;58,7
2024-04-08T05:00:00+00:00;75;20;59
2024-04-08T04:00:00+00:00;ND;20,1;57,7
2024-04-08T03:00:00+00:00;ND;20,1;57,2
2024-04-08T02:00:00+00:00;ND;20,3;57,1
2024-04-08T01:00:00+00:00;ND;20,2;57,2
2024-04-08T00:00:00+00:00;ND;20,4;55,9
2024-04-07T23:00:00+00:00;ND;20,6;56,1
2024-04-07T21:59:00+00:00;42;20,9;54,2
2024-04-07T20:59:00+00:00;41;21,2;53,4
2024-04-07T19:59:00+00:00;42;21,6;53,5
2024-04-07T18:59:00+00:00;62;22;54,9
2024-04-07T17:59:00+00:00;58;22,4;53
2024-04-07T16:59:00+00:00;57;22,6;51,7
2024-04-07T15:59:00+00:00;50;22,5;50,8
2024-04-07T14:59:00+00:00;67;22,3;50,7
2024-04-07T13:59:00+00:00;60;22,2;48,5
2024-04-07T12:59:00+00:00;53;22;47,4
2024-04-07T11:59:00+00:00;43;21,8;46,3
2024-04-07T10:59:00+00:00;49;21,6;47,3
2024-04-07T09:59:00+00:00;38;21,3;48,7
2024-04-07T08:59:00+00:00;38;21,1;49,8
2024-04-07T07:59:00+00:00;45;21;49,8
2024-04-07T06:59:00+00:00;43;21,1;49,9
2024-04-07T05:59:00+00:00;36;21,1;49,4
2024-04-07T04:59:00+00:00;45;21,1;49
2024-04-07T03:59:00+00:00;ND;21,4;48
2024-04-07T02:59:00+00:00;24;21,5;46,1
2024-04-07T01:59:00+00:00;ND;21,6;46,2
2024-04-07T00:59:00+00:00;ND;21,6;47,6
2024-04-06T23:59:00+00:00;41;21,8;47,8
2024-04-06T22:59:00+00:00;67;22,4;46,8
2024-04-06T21:59:00+00:00;63;22,6;45
2024-04-06T20:59:00+00:00;67;22,9;43,7
2024-04-06T19:59:00+00:00;63;23;42,7
2024-04-06T18:59:00+00:00;78;23,3;42,2
2024-04-06T17:59:00+00:00;70;23,6;41,9
2024-04-06T16:59:00+00:00;80;23,5;41,4
2024-04-06T15:59:00+00:00;81;23,3;41,5
2024-04-06T14:59:00+00:00;79;23,1;40,9
2024-04-06T13:59:00+00:00;64;22,9;39,3
2024-04-06T12:59:00+00:00;59;22,6;40,1
2024-04-06T11:59:00+00:00;62;22;41,3
2024-04-06T10:59:00+00:00;48;21,4;40,4
2024-04-06T09:59:00+00:00;43;20,9;40,2
2024-04-06T08:59:00+00:00;40;20,4;41,7
2024-04-06T07:59:00+00:00;32;20,1;43,9
2024-04-06T06:59:00+00:00;27;19,9;46,9
2024-04-06T05:59:00+00:00;32;20;50,7
2024-04-06T04:59:00+00:00;27;19,9;53,3
2024-04-06T03:59:00+00:00;60;19,8;55,5
2024-04-06T02:59:00+00:00;ND;19,9;56,3
2024-04-06T01:59:00+00:00;9;19,9;57,9
2024-04-06T00:59:00+00:00;20;20,1;59,6
2024-04-05T23:59:00+00:00;42;20,5;59,6
2024-04-05T22:59:00+00:00;58;20,9;60,4
2024-04-05T21:59:00+00:00;68;21;60,8
2024-04-05T20:59:00+00:00;68;21,2;60,5
2024-04-05T19:59:00+00:00;57;21,3;60,9
2024-04-05T18:59:00+00:00;81;21,4;61,7
2024-04-05T17:59:00+00:00;88;21,7;61,1
2024-04-05T16:59:00+00:00;73;22;58,4
2024-04-05T15:59:00+00:00;77;21,8;57,8
2024-04-05T14:59:00+00:00;71;21,6;58,1
2024-04-05T13:59:00+00:00;66;21,2;58,1
2024-04-05T12:59:00+00:00;66;21,1;57,1
2024-04-05T11:59:00+00:00;58;20,8;56,8
2024-04-05T10:59:00+00:00;58;20,4;57,3
2024-04-05T09:59:00+00:00;68;20;57,9
2024-04-05T08:59:00+00:00;83;19,9;57,3
2024-04-05T07:59:00+00:00;92;20;53,7
2024-04-05T06:59:00+00:00;78;19,9;54,7
2024-04-05T05:59:00+00:00;78;19,5;57,5
2024-04-05T04:59:00+00:00;46;19,4;58
2024-04-05T03:59:00+00:00;ND;19,3;59
2024-04-05T02:59:00+00:00;19;19,3;59,6
2024-04-05T01:59:00+00:00;17;19,3;60,8
2024-04-05T00:59:00+00:00;ND;19,5;61,2
2024-04-04T23:59:00+00:00;48;19,7;60,9
2024-04-04T22:59:00+00:00;45;19,8;60,7
2024-04-04T21:59:00+00:00;48;20,1;59,3
2024-04-04T20:59:00+00:00;83;20,6;57,3
2024-04-04T19:59:00+00:00;74;20,7;55,7
2024-04-04T18:59:00+00:00;78;21;53,8
2024-04-04T17:59:00+00:00;93;21,8;50,5
2024-04-04T16:59:00+00:00;92;21,7;49,1
2024-04-04T15:59:00+00:00;84;21,5;49,4
2024-04-04T14:59:00+00:00;71;20,9;48,5
2024-04-04T13:59:00+00:00;59;20,6;51
2024-04-04T12:59:00+00:00;49;20;56,3
2024-04-04T11:59:00+00:00;55;19,6;61,4
2024-04-04T10:59:00+00:00;58;19;62,4
2024-04-04T09:59:00+00:00;50;18,4;61,1
2024-04-04T08:59:00+00:00;44;18,4;59,6
2024-04-04T07:59:00+00:00;77;18,7;62
2024-04-04T06:59:00+00:00;76;18,7;63,6
2024-04-04T05:59:00+00:00;70;18,8;63,9
2024-04-04T04:59:00+00:00;61;18,8;62,2
2024-04-04T03:59:00+00:00;103;18,8;60,7
2024-04-04T02:59:00+00:00;ND;18,9;59,4
2024-04-04T01:59:00+00:00;ND;18,9;59,2
2024-04-04T00:59:00+00:00;11;18,9;58,2
2024-04-03T23:59:00+00:00;52;19;57,1
2024-04-03T22:59:00+00:00;52;19,2;56,5
2024-04-03T21:59:00+00:00;55;19,6;54,8
2024-04-03T20:59:00+00:00;59;19,8;52,2
2024-04-03T19:59:00+00:00;83;20,2;48,7
2024-04-03T18:59:00+00:00;85;20,5;46,5